Flag for U.S.A. Weather past 2 weeks in Sheboygan, Wisconsin, U.S.A.

Now
26 °F

Light snow. Ice fog.


Feels Like: 14 °F
Forecast: 22 / 33 °F
Wind: 15 mph from South

Location: Sheboygan County Memorial Airport

Current Time: Mar 3, 2015 at 7:47:10 AM

Latest Report: Mar 3, 2015 at 7:00 AM


Visibility: 1 mi

Pressure: 29.88 "Hg

Humidity: 88%

Dew point: 23 °F

Location of SheboyganLocation

Historic Weather in Sheboygan — Graph

°F

Sheboygan temperature yesterday

Maximum temperature yesterday: 28 °F (at 2:53 PM)
Minimum temperature yesterday: 13 °F (at 6:53 AM)
Average temperature yesterday: 22 °F

Past Weeks' High & Low Weather Summary

 TemperatureHumidityPressure
High31 °F (Feb 24, 2:53 PM)92% (Mar 3, 1:00 AM)30.74 "Hg (Mar 3, 1:00 AM)
Low-11 °F (Feb 19, 5:53 AM)34% (Feb 24, 5:53 PM)29.55 "Hg (Feb 24, 2:53 PM)
Average11 °F62%30.24 "Hg
* Reported Feb 16 7:53 AM — Mar 3 7:00 AM, Sheboygan, Weather by CustomWeather, © 2015

Note: Actual official high and low records may vary slightly from our data, if they occured in-between our weather recording intervals... More about our weather records

Advertising

Sheboygan weather history for previous 24 hours

 ConditionsComfort  
Time TempWeatherWind HumidityBarometerVisibility
7:00 AM
Tue, Mar 3
26 °FLight snow. Ice fog.15 mph88%29.88 "Hg1 mi
5:53 AM27 °FOvercast.13 mph75%29.98 "Hg10 mi
4:53 AM27 °FOvercast.8 mph75%30.03 "Hg9 mi
3:53 AM24 °FOvercast.3 mph75%30.06 "Hg9 mi
2:53 AM24 °FOvercast.5 mph75%30.12 "Hg9 mi
1:53 AM22 °FIce fog.No wind89%30.19 "Hg6 mi
1:00 AM22 °FLight snow. Ice fog.No wind92%30.18 "Hg3 mi
11:53 PM
Mon, Mar 2
25 °FMostly cloudy.7 mph66%30.24 "Hg10 mi
10:53 PM25 °FOvercast.10 mph63%30.27 "Hg10 mi
9:53 PM25 °FOvercast.13 mph63%30.29 "Hg10 mi
8:53 PM25 °FOvercast.7 mph69%30.31 "Hg10 mi
7:53 PM25 °FClear.9 mph69%30.33 "Hg10 mi
6:53 PM24 °FClear.9 mph68%30.37 "Hg10 mi
5:53 PM24 °FClear.8 mph65%30.39 "Hg10 mi
4:53 PM24 °FSunny.9 mph62%30.41 "Hg10 mi
3:53 PM27 °FSunny.6 mph51%30.42 "Hg10 mi
2:53 PM28 °FSunny.7 mph45%30.44 "Hg10 mi
1:53 PM26 °FSunny.6 mph48%30.47 "Hg10 mi
12:53 PM25 °FSunny.3 mph48%30.49 "Hg10 mi
11:53 AM25 °FSunny.No wind48%30.51 "Hg10 mi
10:53 AM24 °FSunny.No wind48%30.52 "Hg10 mi
9:53 AM22 °FSunny.9 mph55%30.50 "Hg10 mi
8:53 AM20 °FSunny.8 mph60%30.50 "Hg10 mi
7:53 AM16 °FSunny.7 mph67%30.48 "Hg10 mi
Weather by CustomWeather, © 2015

See weather overviewHow to use our weather pages